Time,TemperatureF,DewpointF,PressureIn,WindDirection,WindDirectionDegrees,WindSpeedMPH,WindSpeedGustMPH,Humidity,HourlyPrecipIn,Conditions,Clouds,dailyrainin,SoftwareType,DateUTC
2013-02-26 00:00:00,77.0,-99.9,29.86,SSE,160,20.0,22.0,-999,-99.99,,,-99.99,,2013-02-26 05:00:00,
2013-02-26 00:22:00,77.0,-99.9,29.86,SSE,160,20.0,22.0,-999,-99.99,,,-99.99,,2013-02-26 05:22:00,
2013-02-26 00:32:00,77.0,-99.9,29.86,SSE,160,20.0,22.0,-999,-99.99,,,-99.99,,2013-02-26 05:32:00,
2013-02-26 00:43:00,77.0,-99.9,29.86,SSE,160,20.0,22.0,-999,-99.99,,,-99.99,,2013-02-26 05:43:00,
2013-02-26 00:52:00,77.0,-99.9,29.86,SSE,160,20.0,22.0,-999,-99.99,,,-99.99,,2013-02-26 05:52:00,
2013-02-26 01:00:00,78.0,-99.9,29.86,South,170,17.0,21.0,-999,-99.99,,,-99.99,,2013-02-26 06:00:00,
2013-02-26 01:22:00,78.0,-99.9,29.86,South,170,17.0,21.0,-999,-99.99,,,-99.99,,2013-02-26 06:22:00,
2013-02-26 01:32:00,78.0,-99.9,29.86,South,170,17.0,21.0,-999,-99.99,,,-99.99,,2013-02-26 06:32:00,
2013-02-26 01:42:00,78.0,-99.9,29.86,South,170,17.0,21.0,-999,-99.99,,,-99.99,,2013-02-26 06:42:00,
2013-02-26 01:52:00,78.0,-99.9,29.86,South,170,17.0,21.0,-999,-99.99,,,-99.99,,2013-02-26 06:52:00,
2013-02-26 02:00:00,77.0,-99.9,29.85,South,170,18.0,20.0,-999,-99.99,,,-99.99,,2013-02-26 07:00:00,
2013-02-26 02:22:00,77.0,-99.9,29.85,South,170,18.0,20.0,-999,-99.99,,,-99.99,,2013-02-26 07:22:00,
2013-02-26 02:32:00,77.0,-99.9,29.85,South,170,18.0,20.0,-999,-99.99,,,-99.99,,2013-02-26 07:32:00,
2013-02-26 02:42:00,77.0,-99.9,29.85,South,170,18.0,20.0,-999,-99.99,,,-99.99,,2013-02-26 07:42:00,
2013-02-26 02:52:00,77.0,-99.9,29.85,South,170,18.0,20.0,-999,-99.99,,,-99.99,,2013-02-26 07:52:00,
2013-02-26 03:00:00,77.0,-99.9,29.83,South,180,20.0,21.0,-999,-99.99,,,-99.99,,2013-02-26 08:00:00,
2013-02-26 03:22:00,77.0,-99.9,29.83,South,180,20.0,21.0,-999,-99.99,,,-99.99,,2013-02-26 08:22:00,
2013-02-26 03:32:00,77.0,-99.9,29.83,South,180,20.0,21.0,-999,-99.99,,,-99.99,,2013-02-26 08:32:00,
2013-02-26 03:42:00,77.0,-99.9,29.83,South,180,20.0,21.0,-999,-99.99,,,-99.99,,2013-02-26 08:42:00,
2013-02-26 03:52:00,77.0,-99.9,29.83,South,180,20.0,21.0,-999,-99.99,,,-99.99,,2013-02-26 08:52:00,
2013-02-26 04:00:00,77.0,-99.9,29.82,South,190,16.0,18.0,-999,-99.99,,,-99.99,,2013-02-26 09:00:00,
2013-02-26 04:21:00,77.0,-99.9,29.82,South,190,16.0,18.0,-999,-99.99,,,-99.99,,2013-02-26 09:21:00,
2013-02-26 04:32:00,77.0,-99.9,29.82,South,190,16.0,18.0,-999,-99.99,,,-99.99,,2013-02-26 09:32:00,
2013-02-26 04:43:00,77.0,-99.9,29.82,South,190,16.0,18.0,-999,-99.99,,,-99.99,,2013-02-26 09:43:00,
2013-02-26 04:52:00,77.0,-99.9,29.82,South,190,16.0,18.0,-999,-99.99,,,-99.99,,2013-02-26 09:52:00,
2013-02-26 05:00:00,77.0,-99.9,29.83,SSW,200,18.0,22.0,-999,-99.99,,,-99.99,,2013-02-26 10:00:00,
2013-02-26 05:21:00,77.0,-99.9,29.83,SSW,200,18.0,22.0,-999,-99.99,,,-99.99,,2013-02-26 10:21:00,
2013-02-26 05:32:00,77.0,-99.9,29.83,SSW,200,18.0,22.0,-999,-99.99,,,-99.99,,2013-02-26 10:32:00,
2013-02-26 05:42:00,77.0,-99.9,29.83,SSW,200,18.0,22.0,-999,-99.99,,,-99.99,,2013-02-26 10:42:00,
2013-02-26 05:52:00,77.0,-99.9,29.83,SSW,200,18.0,22.0,-999,-99.99,,,-99.99,,2013-02-26 10:52:00,
2013-02-26 06:00:00,77.0,-99.9,29.83,SSW,200,16.0,18.0,-999,-99.99,,,-99.99,,2013-02-26 11:00:00,
2013-02-26 06:22:00,77.0,-99.9,29.83,SSW,200,16.0,18.0,-999,-99.99,,,-99.99,,2013-02-26 11:22:00,
2013-02-26 06:32:00,77.0,-99.9,29.83,SSW,200,16.0,18.0,-999,-99.99,,,-99.99,,2013-02-26 11:32:00,
2013-02-26 06:42:00,77.0,-99.9,29.83,SSW,200,16.0,18.0,-999,-99.99,,,-99.99,,2013-02-26 11:42:00,
2013-02-26 06:53:00,77.0,-99.9,29.83,SSW,200,16.0,18.0,-999,-99.99,,,-99.99,,2013-02-26 11:53:00,
2013-02-26 07:00:00,77.0,-99.9,29.85,South,180,16.0,18.0,-999,-99.99,,,-99.99,,2013-02-26 12:00:00,
2013-02-26 07:22:00,77.0,-99.9,29.85,South,180,16.0,18.0,-999,-99.99,,,-99.99,,2013-02-26 12:22:00,
2013-02-26 07:33:00,77.0,-99.9,29.85,South,180,16.0,18.0,-999,-99.99,,,-99.99,,2013-02-26 12:33:00,
2013-02-26 07:42:00,77.0,-99.9,29.85,South,180,16.0,18.0,-999,-99.99,,,-99.99,,2013-02-26 12:42:00,
2013-02-26 07:53:00,77.0,-99.9,29.85,South,180,16.0,18.0,-999,-99.99,,,-99.99,,2013-02-26 12:53:00,
2013-02-26 08:00:00,78.0,-99.9,29.87,South,170,16.0,18.0,-999,-99.99,,,-99.99,,2013-02-26 13:00:00,
2013-02-26 08:22:00,78.0,-99.9,29.87,South,170,16.0,18.0,-999,-99.99,,,-99.99,,2013-02-26 13:22:00,
2013-02-26 08:32:00,78.0,-99.9,29.87,South,170,16.0,18.0,-999,-99.99,,,-99.99,,2013-02-26 13:32:00,
2013-02-26 08:42:00,78.0,-99.9,29.87,South,170,16.0,18.0,-999,-99.99,,,-99.99,,2013-02-26 13:42:00,
2013-02-26 08:52:00,78.0,-99.9,29.87,South,170,16.0,18.0,-999,-99.99,,,-99.99,,2013-02-26 13:52:00,
2013-02-26 09:00:00,78.0,-99.9,29.89,South,190,17.0,18.0,-999,-99.99,,,-99.99,,2013-02-26 14:00:00,
2013-02-26 09:22:00,78.0,-99.9,29.89,South,190,17.0,18.0,-999,-99.99,,,-99.99,,2013-02-26 14:22:00,
2013-02-26 09:32:00,78.0,-99.9,29.89,South,190,17.0,18.0,-999,-99.99,,,-99.99,,2013-02-26 14:32:00,
2013-02-26 09:42:00,78.0,-99.9,29.89,South,190,17.0,18.0,-999,-99.99,,,-99.99,,2013-02-26 14:42:00,
2013-02-26 09:52:00,78.0,-99.9,29.89,South,190,17.0,18.0,-999,-99.99,,,-99.99,,2013-02-26 14:52:00,
2013-02-26 10:00:00,78.0,-99.9,29.91,South,180,17.0,18.0,-999,-99.99,,,-99.99,,2013-02-26 15:00:00,
2013-02-26 10:22:00,78.0,-99.9,29.91,South,180,17.0,18.0,-999,-99.99,,,-99.99,,2013-02-26 15:22:00,
2013-02-26 10:32:00,78.0,-99.9,29.91,South,180,17.0,18.0,-999,-99.99,,,-99.99,,2013-02-26 15:32:00,
2013-02-26 10:42:00,78.0,-99.9,29.91,South,180,17.0,18.0,-999,-99.99,,,-99.99,,2013-02-26 15:42:00,
2013-02-26 10:52:00,78.0,-99.9,29.91,South,180,17.0,18.0,-999,-99.99,,,-99.99,,2013-02-26 15:52:00,
2013-02-26 11:00:00,78.0,-99.9,29.91,South,190,16.0,18.0,-999,-99.99,,,-99.99,,2013-02-26 16:00:00,
2013-02-26 11:22:00,78.0,-99.9,29.91,South,190,16.0,18.0,-999,-99.99,,,-99.99,,2013-02-26 16:22:00,
2013-02-26 11:32:00,78.0,-99.9,29.91,South,190,16.0,18.0,-999,-99.99,,,-99.99,,2013-02-26 16:32:00,
2013-02-26 11:42:00,78.0,-99.9,29.91,South,190,16.0,18.0,-999,-99.99,,,-99.99,,2013-02-26 16:42:00,
2013-02-26 11:52:00,78.0,-99.9,29.91,South,190,16.0,18.0,-999,-99.99,,,-99.99,,2013-02-26 16:52:00,
2013-02-26 12:00:00,78.0,-99.9,29.91,SSW,200,15.0,17.0,-999,-99.99,,,-99.99,,2013-02-26 17:00:00,
2013-02-26 12:22:00,78.0,-99.9,29.91,SSW,200,15.0,17.0,-999,-99.99,,,-99.99,,2013-02-26 17:22:00,
2013-02-26 12:32:00,78.0,-99.9,29.91,SSW,200,15.0,17.0,-999,-99.99,,,-99.99,,2013-02-26 17:32:00,
2013-02-26 12:42:00,78.0,-99.9,29.91,SSW,200,15.0,17.0,-999,-99.99,,,-99.99,,2013-02-26 17:42:00,
2013-02-26 12:52:00,78.0,-99.9,29.91,SSW,200,15.0,17.0,-999,-99.99,,,-99.99,,2013-02-26 17:52:00,
2013-02-26 13:00:00,78.0,-99.9,29.92,SSW,210,13.0,14.0,-999,-99.99,,,-99.99,,2013-02-26 18:00:00,
2013-02-26 13:22:00,78.0,-99.9,29.92,SSW,210,13.0,14.0,-999,-99.99,,,-99.99,,2013-02-26 18:22:00,
2013-02-26 13:32:00,78.0,-99.9,29.92,SSW,210,13.0,14.0,-999,-99.99,,,-99.99,,2013-02-26 18:32:00,
2013-02-26 13:42:00,78.0,-99.9,29.92,SSW,210,13.0,14.0,-999,-99.99,,,-99.99,,2013-02-26 18:42:00,
2013-02-26 13:53:00,78.0,-99.9,29.92,SSW,210,13.0,14.0,-999,-99.99,,,-99.99,,2013-02-26 18:53:00,
2013-02-26 14:00:00,78.0,-99.9,29.89,South,190,13.0,15.0,-999,-99.99,,,-99.99,,2013-02-26 19:00:00,
2013-02-26 14:22:00,78.0,-99.9,29.89,South,190,13.0,15.0,-999,-99.99,,,-99.99,,2013-02-26 19:22:00,
2013-02-26 14:32:00,78.0,-99.9,29.89,South,190,13.0,15.0,-999,-99.99,,,-99.99,,2013-02-26 19:32:00,
2013-02-26 14:42:00,78.0,-99.9,29.89,South,190,13.0,15.0,-999,-99.99,,,-99.99,,2013-02-26 19:42:00,
2013-02-26 14:52:00,78.0,-99.9,29.89,South,190,13.0,15.0,-999,-99.99,,,-99.99,,2013-02-26 19:52:00,
2013-02-26 15:00:00,78.0,-99.9,29.87,South,180,13.0,14.0,-999,-99.99,,,-99.99,,2013-02-26 20:00:00,
2013-02-26 15:22:00,78.0,-99.9,29.87,South,180,13.0,14.0,-999,-99.99,,,-99.99,,2013-02-26 20:22:00,
2013-02-26 15:32:00,78.0,-99.9,29.87,South,180,13.0,14.0,-999,-99.99,,,-99.99,,2013-02-26 20:32:00,
2013-02-26 15:42:00,78.0,-99.9,29.87,South,180,13.0,14.0,-999,-99.99,,,-99.99,,2013-02-26 20:42:00,
2013-02-26 15:52:00,78.0,-99.9,29.87,South,180,13.0,14.0,-999,-99.99,,,-99.99,,2013-02-26 20:52:00,
2013-02-26 16:00:00,78.0,-99.9,29.87,South,190,10.0,13.0,-999,-99.99,,,-99.99,,2013-02-26 21:00:00,
2013-02-26 16:21:00,78.0,-99.9,29.87,South,190,10.0,13.0,-999,-99.99,,,-99.99,,2013-02-26 21:21:00,
2013-02-26 16:31:00,78.0,-99.9,29.87,South,190,10.0,13.0,-999,-99.99,,,-99.99,,2013-02-26 21:31:00,
2013-02-26 16:41:00,78.0,-99.9,29.87,South,190,10.0,13.0,-999,-99.99,,,-99.99,,2013-02-26 21:41:00,
2013-02-26 16:51:00,78.0,-99.9,29.87,South,190,10.0,13.0,-999,-99.99,,,-99.99,,2013-02-26 21:51:00,
2013-02-26 17:00:00,78.0,-99.9,29.88,SW,230,5.0,7.0,-999,-99.99,,,-99.99,,2013-02-26 22:00:00,
2013-02-26 17:21:00,78.0,-99.9,29.88,SW,230,5.0,7.0,-999,-99.99,,,-99.99,,2013-02-26 22:21:00,
2013-02-26 17:32:00,78.0,-99.9,29.88,SW,230,5.0,7.0,-999,-99.99,,,-99.99,,2013-02-26 22:32:00,
2013-02-26 17:42:00,78.0,-99.9,29.88,SW,230,5.0,7.0,-999,-99.99,,,-99.99,,2013-02-26 22:42:00,
2013-02-26 17:52:00,78.0,-99.9,29.88,SW,230,5.0,7.0,-999,-99.99,,,-99.99,,2013-02-26 22:52:00,
2013-02-26 18:00:00,78.0,-99.9,29.88,South,180,13.0,14.0,-999,-99.99,,,-99.99,,2013-02-26 23:00:00,
2013-02-26 18:21:00,78.0,-99.9,29.88,South,180,13.0,14.0,-999,-99.99,,,-99.99,,2013-02-26 23:21:00,
2013-02-26 18:32:00,78.0,-99.9,29.88,South,180,13.0,14.0,-999,-99.99,,,-99.99,,2013-02-26 23:32:00,
2013-02-26 18:42:00,78.0,-99.9,29.88,South,180,13.0,14.0,-999,-99.99,,,-99.99,,2013-02-26 23:42:00,
2013-02-26 18:52:00,78.0,-99.9,29.88,South,180,13.0,14.0,-999,-99.99,,,-99.99,,2013-02-26 23:52:00,
2013-02-26 19:00:00,78.0,-99.9,29.89,South,180,11.0,13.0,-999,-99.99,,,-99.99,,2013-02-27 00:00:00,
2013-02-26 19:22:00,78.0,-99.9,29.89,South,180,11.0,13.0,-999,-99.99,,,-99.99,,2013-02-27 00:22:00,
2013-02-26 19:32:00,78.0,-99.9,29.89,South,180,11.0,13.0,-999,-99.99,,,-99.99,,2013-02-27 00:32:00,
2013-02-26 19:42:00,78.0,-99.9,29.89,South,180,11.0,13.0,-999,-99.99,,,-99.99,,2013-02-27 00:42:00,
2013-02-26 19:52:00,78.0,-99.9,29.89,South,180,11.0,13.0,-999,-99.99,,,-99.99,,2013-02-27 00:52:00,
2013-02-26 20:00:00,78.0,-99.9,29.91,South,170,15.0,17.0,-999,-99.99,,,-99.99,,2013-02-27 01:00:00,
2013-02-26 20:22:00,78.0,-99.9,29.91,South,170,15.0,17.0,-999,-99.99,,,-99.99,,2013-02-27 01:22:00,
2013-02-26 20:32:00,78.0,-99.9,29.91,South,170,15.0,17.0,-999,-99.99,,,-99.99,,2013-02-27 01:32:00,
2013-02-26 20:42:00,78.0,-99.9,29.91,South,170,15.0,17.0,-999,-99.99,,,-99.99,,2013-02-27 01:42:00,
2013-02-26 20:52:00,78.0,-99.9,29.91,South,170,15.0,17.0,-999,-99.99,,,-99.99,,2013-02-27 01:52:00,
2013-02-26 21:00:00,78.0,-99.9,29.93,South,180,14.0,16.0,-999,-99.99,,,-99.99,,2013-02-27 02:00:00,
2013-02-26 21:25:00,78.0,-99.9,29.93,South,180,14.0,16.0,-999,-99.99,,,-99.99,,2013-02-27 02:25:00,
2013-02-26 21:32:00,78.0,-99.9,29.93,South,180,14.0,16.0,-999,-99.99,,,-99.99,,2013-02-27 02:32:00,
2013-02-26 21:42:00,78.0,-99.9,29.93,South,180,14.0,16.0,-999,-99.99,,,-99.99,,2013-02-27 02:42:00,
2013-02-26 21:52:00,78.0,-99.9,29.93,South,180,14.0,16.0,-999,-99.99,,,-99.99,,2013-02-27 02:52:00,
2013-02-26 22:00:00,79.0,-99.9,29.94,South,190,13.0,14.0,-999,-99.99,,,-99.99,,2013-02-27 03:00:00,
2013-02-26 22:22:00,79.0,-99.9,29.94,South,190,13.0,14.0,-999,-99.99,,,-99.99,,2013-02-27 03:22:00,
2013-02-26 22:32:00,79.0,-99.9,29.94,South,190,13.0,14.0,-999,-99.99,,,-99.99,,2013-02-27 03:32:00,
2013-02-26 22:42:00,79.0,-99.9,29.94,South,190,13.0,14.0,-999,-99.99,,,-99.99,,2013-02-27 03:42:00,
2013-02-26 22:52:00,79.0,-99.9,29.94,South,190,13.0,14.0,-999,-99.99,,,-99.99,,2013-02-27 03:52:00,
2013-02-26 23:00:00,79.0,-99.9,29.93,SSW,210,14.0,16.0,-999,-99.99,,,-99.99,,2013-02-27 04:00:00,
2013-02-26 23:22:00,79.0,-99.9,29.93,SSW,210,14.0,16.0,-999,-99.99,,,-99.99,,2013-02-27 04:22:00,
2013-02-26 23:32:00,79.0,-99.9,29.93,SSW,210,14.0,16.0,-999,-99.99,,,-99.99,,2013-02-27 04:32:00,
2013-02-26 23:42:00,79.0,-99.9,29.93,SSW,210,14.0,16.0,-999,-99.99,,,-99.99,,2013-02-27 04:42:00,
2013-02-26 23:52:00,79.0,-99.9,29.93,SSW,210,14.0,16.0,-999,-99.99,,,-99.99,,2013-02-27 04:52:00,